Wetterdaten: aktuell Montag, 17.06.2019 23:55
Datum Zeit Temp. I. Temp. A. Temp. 2 Feuchte I. Feuchte A. Luftdruck Regen Wind Richtung Richtung Taupunkt Windben
17.06.2019 23:55 25,2 C 20,3 C 19,1 C 65 % 66 % 1019,0 hPa 0,0 l/m 0,0 km/h N 360 15,3 C 0,0 km/h
17.06.2019 23:50 25,1 C 20,4 C 19,2 C 64 % 66 % 1019,0 hPa 0,0 l/m 0,0 km/h N 360 15,2 C 0,0 km/h
17.06.2019 23:45 25,1 C 20,5 C 19,2 C 64 % 66 % 1019,0 hPa 0,0 l/m 0,0 km/h N 360 15,3 C 0,0 km/h
17.06.2019 23:40 25,1 C 20,7 C 19,5 C 64 % 67 % 1019,0 hPa 0,0 l/m 0,0 km/h N 360 15,2 C 0,0 km/h
17.06.2019 23:35 25,0 C 20,8 C 19,6 C 64 % 67 % 1019,0 hPa 0,0 l/m 0,0 km/h N 360 15,3 C 0,0 km/h
17.06.2019 23:30 25,0 C 21,1 C 19,6 C 64 % 67 % 1019,0 hPa 0,0 l/m 0,0 km/h N 360 15,6 C 0,0 km/h
17.06.2019 23:25 25,0 C 21,1 C 19,6 C 63 % 67 % 1019,0 hPa 0,0 l/m 0,0 km/h N 360 15,4 C 0,0 km/h
17.06.2019 23:20 25,1 C 21,2 C 19,7 C 63 % 68 % 1019,1 hPa 0,0 l/m 0,0 km/h N 360 15,5 C 0,0 km/h
17.06.2019 23:15 25,2 C 21,5 C 19,9 C 63 % 68 % 1019,1 hPa 0,0 l/m 0,0 km/h N 360 15,6 C 0,0 km/h
17.06.2019 23:10 25,3 C 21,6 C 19,9 C 65 % 68 % 1019,1 hPa 0,0 l/m 0,0 km/h N 360 15,4 C 0,0 km/h
17.06.2019 23:05 25,2 C 21,7 C 20,0 C 66 % 68 % 1019,1 hPa 0,0 l/m 0,0 km/h N 360 15,5 C 0,0 km/h
17.06.2019 23:00 25,2 C 21,9 C 20,0 C 66 % 69 % 1018,9 hPa 0,0 l/m 0,0 km/h N 360 15,5 C 0,0 km/h
17.06.2019 22:55 25,2 C 22,0 C 20,1 C 65 % 69 % 1018,9 hPa 0,0 l/m 0,0 km/h N 360 15,3 C 0,0 km/h
17.06.2019 22:50 25,1 C 22,2 C 20,2 C 65 % 69 % 1018,9 hPa 0,0 l/m 0,0 km/h N 360 15,3 C 0,0 km/h
17.06.2019 22:45 25,1 C 22,4 C 20,3 C 65 % 70 % 1018,9 hPa 0,0 l/m 0,0 km/h N 360 15,2 C 0,0 km/h
17.06.2019 22:40 25,0 C 22,7 C 20,4 C 65 % 70 % 1018,9 hPa 0,0 l/m 0,0 km/h N 360 15,3 C 0,0 km/h
17.06.2019 22:35 25,0 C 22,6 C 20,4 C 65 % 70 % 1018,9 hPa 0,0 l/m 0,0 km/h N 360 15,2 C 0,0 km/h
17.06.2019 22:30 25,0 C 22,9 C 20,5 C 65 % 71 % 1018,9 hPa 0,0 l/m 0,0 km/h N 360 15,5 C 0,0 km/h
17.06.2019 22:25 24,9 C 22,9 C 20,6 C 65 % 71 % 1018,9 hPa 0,0 l/m 0,0 km/h N 360 15,2 C 0,0 km/h
17.06.2019 22:20 24,8 C 23,0 C 20,6 C 65 % 71 % 1018,9 hPa 0,0 l/m 0,0 km/h N 360 15,3 C 0,0 km/h
17.06.2019 22:15 24,8 C 23,2 C 20,7 C 65 % 71 % 1018,9 hPa 0,0 l/m 0,0 km/h N 360 15,5 C 0,0 km/h
17.06.2019 22:10 24,8 C 23,3 C 20,8 C 64 % 71 % 1018,9 hPa 0,0 l/m 0,0 km/h N 360 15,9 C 0,0 km/h
17.06.2019 22:05 24,8 C 23,5 C 21,0 C 64 % 72 % 1018,9 hPa 0,0 l/m 0,0 km/h N 360 15,8 C 0,0 km/h
17.06.2019 22:00 24,8 C 23,7 C 21,0 C 64 % 72 % 1019,0 hPa 0,0 l/m 0,0 km/h N 360 15,7 C 0,0 km/h
17.06.2019 21:55 24,8 C 23,9 C 21,1 C 64 % 72 % 1019,0 hPa 0,0 l/m 0,0 km/h N 360 15,7 C 0,0 km/h
17.06.2019 21:50 24,8 C 24,1 C 21,2 C 64 % 73 % 1019,0 hPa 0,0 l/m 0,0 km/h N 360 15,6 C 0,0 km/h
17.06.2019 21:45 24,8 C 24,3 C 21,4 C 64 % 73 % 1019,0 hPa 0,0 l/m 0,0 km/h N 360 15,8 C 0,0 km/h
17.06.2019 21:40 24,8 C 24,5 C 21,5 C 64 % 73 % 1018,3 hPa 0,0 l/m 0,0 km/h N 360 15,7 C 0,0 km/h
17.06.2019 21:35 24,8 C 24,6 C 21,7 C 64 % 73 % 1018,3 hPa 0,0 l/m 0,0 km/h N 360 15,5 C 0,0 km/h
17.06.2019 21:30 24,9 C 24,9 C 21,6 C 64 % 74 % 1018,3 hPa 0,0 l/m 0,0 km/h N 360 15,5 C 0,0 km/h
17.06.2019 21:25 24,9 C 24,9 C 21,7 C 64 % 74 % 1018,3 hPa 0,0 l/m 0,0 km/h N 360 15,5 C 0,0 km/h
17.06.2019 21:20 24,8 C 25,2 C 21,9 C 65 % 74 % 1018,5 hPa 0,0 l/m 0,0 km/h N 360 15,8 C 0,0 km/h
17.06.2019 21:15 24,8 C 25,3 C 22,1 C 65 % 75 % 1018,5 hPa 0,0 l/m 0,0 km/h N 360 15,6 C 0,0 km/h
17.06.2019 21:10 24,8 C 25,6 C 22,2 C 65 % 75 % 1018,5 hPa 0,0 l/m 0,0 km/h N 360 15,6 C 0,0 km/h
17.06.2019 21:05 24,7 C 25,7 C 22,3 C 65 % 75 % 1018,5 hPa 0,0 l/m 0,0 km/h N 360 15,4 C 0,0 km/h
17.06.2019 21:00 24,7 C 25,9 C 22,5 C 65 % 76 % 1018,3 hPa 0,0 l/m 0,0 km/h N 360 15,3 C 0,0 km/h
17.06.2019 20:55 24,6 C 26,1 C 22,4 C 65 % 76 % 1018,3 hPa 0,0 l/m 0,0 km/h N 360 15,5 C 0,0 km/h
17.06.2019 20:50 24,6 C 26,3 C 22,6 C 64 % 76 % 1018,3 hPa 0,0 l/m 0,0 km/h N 360 15,6 C 0,0 km/h
17.06.2019 20:45 24,6 C 26,2 C 22,7 C 64 % 76 % 1018,3 hPa 0,0 l/m 0,0 km/h N 360 15,2 C 0,0 km/h
17.06.2019 20:40 24,6 C 26,5 C 22,9 C 64 % 77 % 1018,3 hPa 0,0 l/m 0,0 km/h N 360 15,5 C 0,0 km/h
17.06.2019 20:35 24,6 C 26,7 C 22,8 C 64 % 77 % 1018,3 hPa 0,0 l/m 0,0 km/h N 360 15,4 C 0,0 km/h
17.06.2019 20:30 24,6 C 26,7 C 23,1 C 64 % 77 % 1018,3 hPa 0,0 l/m 0,0 km/h N 360 15,4 C 0,0 km/h
17.06.2019 20:25 24,6 C 26,8 C 23,2 C 64 % 77 % 1018,3 hPa 0,0 l/m 0,0 km/h N 360 15,2 C 0,0 km/h
17.06.2019 20:20 24,6 C 27,1 C 23,3 C 64 % 78 % 1018,4 hPa 0,0 l/m 0,0 km/h N 360 15,4 C 0,0 km/h
17.06.2019 20:15 24,6 C 27,2 C 23,3 C 64 % 78 % 1018,4 hPa 0,0 l/m 0,0 km/h N 360 15,5 C 0,0 km/h
17.06.2019 20:10 24,5 C 27,4 C 23,4 C 64 % 78 % 1018,4 hPa 0,0 l/m 0,0 km/h N 360 15,4 C 0,0 km/h
17.06.2019 20:05 24,5 C 27,5 C 23,6 C 64 % 78 % 1018,4 hPa 0,0 l/m 0,0 km/h N 360 15,5 C 0,0 km/h
17.06.2019 20:00 24,5 C 27,7 C 23,7 C 64 % 79 % 1018,3 hPa 0,0 l/m 0,0 km/h N 360 15,3 C 0,0 km/h
17.06.2019 19:55 24,5 C 27,9 C 23,9 C 64 % 79 % 1018,3 hPa 0,0 l/m 0,0 km/h N 360 15,9 C 0,0 km/h
17.06.2019 19:50 24,5 C 27,9 C 24,0 C 64 % 79 % 1018,3 hPa 0,0 l/m 0,0 km/h N 360 15,9 C 0,0 km/h
17.06.2019 19:45 24,5 C 27,8 C 23,8 C 64 % 79 % 1018,3 hPa 0,0 l/m 0,0 km/h N 360 15,4 C 0,0 km/h
17.06.2019 19:40 24,5 C 27,7 C 23,9 C 64 % 79 % 1018,4 hPa 0,0 l/m 0,0 km/h N 360 15,7 C 0,0 km/h
17.06.2019 19:35 24,4 C 27,6 C 23,8 C 64 % 79 % 1018,4 hPa 0,0 l/m 0,0 km/h N 360 15,6 C 0,0 km/h
17.06.2019 19:30 24,4 C 27,5 C 23,7 C 64 % 78 % 1018,4 hPa 0,0 l/m 0,0 km/h N 360 15,5 C 0,0 km/h
17.06.2019 19:25 24,5 C 27,4 C 23,6 C 64 % 78 % 1018,4 hPa 0,0 l/m 0,0 km/h N 360 15,7 C 0,0 km/h
17.06.2019 19:20 24,4 C 27,4 C 23,7 C 64 % 78 % 1018,6 hPa 0,0 l/m 0,0 km/h N 360 15,7 C 0,0 km/h
17.06.2019 19:15 24,5 C 27,2 C 23,7 C 63 % 78 % 1018,6 hPa 0,0 l/m 0,0 km/h N 360 15,5 C 0,0 km/h
17.06.2019 19:10 24,4 C 27,0 C 23,7 C 64 % 78 % 1018,6 hPa 0,0 l/m 0,0 km/h N 360 15,4 C 0,0 km/h
17.06.2019 19:05 24,4 C 26,9 C 23,5 C 63 % 77 % 1018,6 hPa 0,0 l/m 0,0 km/h N 360 15,3 C 0,0 km/h
17.06.2019 19:00 24,4 C 26,7 C 23,3 C 63 % 77 % 1018,6 hPa 0,0 l/m 0,0 km/h N 360 15,4 C 0,0 km/h
17.06.2019 18:55 24,4 C 26,7 C 23,3 C 63 % 77 % 1018,6 hPa 0,0 l/m 0,0 km/h N 360 15,1 C 0,0 km/h
17.06.2019 18:50 24,4 C 26,7 C 23,5 C 63 % 77 % 1018,6 hPa 0,0 l/m 0,0 km/h N 360 15,1 C 0,0 km/h
17.06.2019 18:45 24,4 C 26,9 C 23,5 C 63 % 77 % 1018,6 hPa 0,0 l/m 0,0 km/h N 360 14,9 C 0,0 km/h
17.06.2019 18:40 24,4 C 26,9 C 23,7 C 63 % 77 % 1018,7 hPa 0,0 l/m 0,0 km/h N 360 15,3 C 0,0 km/h
17.06.2019 18:35 24,4 C 27,1 C 23,9 C 63 % 78 % 1018,7 hPa 0,0 l/m 0,0 km/h N 360 15,4 C 0,0 km/h
17.06.2019 18:30 24,4 C 26,9 C 23,9 C 63 % 77 % 1018,7 hPa 0,0 l/m 0,0 km/h N 360 15,3 C 0,0 km/h
17.06.2019 18:25 24,4 C 26,9 C 23,7 C 63 % 77 % 1018,7 hPa 0,0 l/m 0,0 km/h N 360 15,3 C 0,0 km/h
17.06.2019 18:20 24,4 C 26,8 C 23,5 C 63 % 77 % 1018,9 hPa 0,0 l/m 0,0 km/h N 360 15,5 C 0,0 km/h
17.06.2019 18:15 24,4 C 26,6 C 23,5 C 63 % 77 % 1018,9 hPa 0,0 l/m 0,0 km/h N 360 15,0 C 0,0 km/h
17.06.2019 18:10 24,4 C 26,5 C 23,3 C 63 % 77 % 1018,9 hPa 0,0 l/m 0,0 km/h N 360 14,9 C 0,0 km/h
17.06.2019 18:05 24,4 C 26,5 C 23,4 C 63 % 77 % 1018,9 hPa 0,0 l/m 0,0 km/h N 360 15,2 C 0,0 km/h
17.06.2019 18:00 24,4 C 26,5 C 23,5 C 63 % 77 % 1019,1 hPa 0,0 l/m 0,0 km/h N 360 15,2 C 0,0 km/h
17.06.2019 17:55 24,4 C 26,4 C 23,3 C 63 % 77 % 1019,1 hPa 0,0 l/m 0,0 km/h N 360 15,1 C 0,0 km/h
17.06.2019 17:50 24,4 C 26,3 C 23,3 C 64 % 76 % 1019,1 hPa 0,0 l/m 0,0 km/h N 360 15,3 C 0,0 km/h
17.06.2019 17:45 24,4 C 26,3 C 23,1 C 63 % 76 % 1019,1 hPa 0,0 l/m 0,0 km/h N 360 15,3 C 0,0 km/h
17.06.2019 17:40 24,4 C 26,3 C 23,2 C 63 % 76 % 1019,1 hPa 0,0 l/m 0,0 km/h N 360 15,0 C 0,0 km/h
17.06.2019 17:35 24,4 C 26,2 C 23,2 C 63 % 76 % 1019,1 hPa 0,0 l/m 0,0 km/h N 360 14,9 C 0,0 km/h
17.06.2019 17:30 24,4 C 26,2 C 23,5 C 63 % 76 % 1019,1 hPa 0,0 l/m 0,0 km/h N 360 14,9 C 0,0 km/h
17.06.2019 17:25 24,4 C 26,3 C 23,2 C 63 % 76 % 1019,1 hPa 0,0 l/m 0,0 km/h N 360 15,6 C 0,0 km/h
17.06.2019 17:20 24,2 C 26,3 C 23,2 C 63 % 76 % 1019,2 hPa 0,0 l/m 0,0 km/h N 360 15,6 C 0,0 km/h
17.06.2019 17:15 24,3 C 26,0 C 23,2 C 63 % 76 % 1019,2 hPa 0,0 l/m 0,0 km/h N 360 15,1 C 0,0 km/h
17.06.2019 17:10 24,3 C 26,0 C 23,2 C 63 % 76 % 1019,2 hPa 0,0 l/m 0,0 km/h N 360 15,1 C 0,0 km/h
17.06.2019 17:05 24,2 C 26,0 C 23,2 C 64 % 76 % 1019,2 hPa 0,0 l/m 0,0 km/h N 360 15,1 C 0,0 km/h
17.06.2019 17:00 24,2 C 26,1 C 23,3 C 64 % 76 % 1019,4 hPa 0,0 l/m 0,0 km/h N 360 14,8 C 0,0 km/h
17.06.2019 16:55 24,2 C 26,1 C 23,4 C 64 % 76 % 1019,4 hPa 0,0 l/m 0,0 km/h N 360 15,2 C 0,0 km/h
17.06.2019 16:50 24,2 C 26,1 C 23,6 C 64 % 76 % 1019,4 hPa 0,0 l/m 0,0 km/h N 360 15,2 C 0,0 km/h
17.06.2019 16:45 24,1 C 26,0 C 23,6 C 64 % 76 % 1019,4 hPa 0,0 l/m 0,0 km/h N 360 15,4 C 0,0 km/h
17.06.2019 16:40 24,1 C 26,0 C 23,4 C 64 % 76 % 1019,4 hPa 0,0 l/m 0,0 km/h N 360 15,4 C 0,0 km/h
17.06.2019 16:35 24,1 C 25,9 C 23,4 C 64 % 76 % 1019,4 hPa 0,0 l/m 0,0 km/h N 360 15,3 C 0,0 km/h
17.06.2019 16:30 24,1 C 25,8 C 23,2 C 64 % 76 % 1019,4 hPa 0,0 l/m 0,0 km/h N 360 15,2 C 0,0 km/h
17.06.2019 16:25 24,1 C 25,9 C 23,2 C 64 % 76 % 1019,4 hPa 0,0 l/m 0,0 km/h N 360 15,6 C 0,0 km/h
17.06.2019 16:20 24,1 C 25,8 C 23,4 C 64 % 76 % 1019,6 hPa 0,0 l/m 0,0 km/h N 360 15,5 C 0,0 km/h
17.06.2019 16:15 24,1 C 25,9 C 23,3 C 64 % 76 % 1019,6 hPa 0,0 l/m 0,0 km/h N 360 15,6 C 0,0 km/h
17.06.2019 16:10 24,0 C 25,8 C 23,2 C 64 % 76 % 1019,6 hPa 0,0 l/m 0,0 km/h N 360 15,5 C 0,0 km/h
17.06.2019 16:05 24,0 C 25,8 C 23,3 C 64 % 76 % 1019,6 hPa 0,0 l/m 0,0 km/h N 360 15,2 C 0,0 km/h
17.06.2019 16:00 24,0 C 25,8 C 23,2 C 63 % 76 % 1019,7 hPa 0,0 l/m 0,0 km/h N 360 16,1 C 0,0 km/h
17.06.2019 15:55 24,0 C 25,7 C 23,1 C 63 % 75 % 1019,7 hPa 0,0 l/m 0,0 km/h N 360 16,0 C 0,0 km/h
17.06.2019 15:50 24,0 C 25,6 C 23,0 C 64 % 75 % 1019,7 hPa 0,0 l/m 0,0 km/h N 360 15,6 C 0,0 km/h
17.06.2019 15:45 24,0 C 25,7 C 22,9 C 63 % 75 % 1019,7 hPa 0,0 l/m 0,0 km/h N 360 15,4 C 0,0 km/h
17.06.2019 15:40 24,0 C 25,6 C 22,9 C 63 % 75 % 1020,0 hPa 0,0 l/m 0,0 km/h N 360 15,9 C 0,0 km/h
17.06.2019 15:35 24,0 C 25,5 C 22,9 C 63 % 75 % 1020,0 hPa 0,0 l/m 0,0 km/h N 360 16,1 C 0,0 km/h
17.06.2019 15:30 24,0 C 25,3 C 22,9 C 63 % 75 % 1020,0 hPa 0,0 l/m 0,0 km/h N 360 15,9 C 0,0 km/h
17.06.2019 15:25 24,0 C 25,2 C 22,9 C 63 % 74 % 1020,0 hPa 0,0 l/m 0,0 km/h N 360 15,5 C 0,0 km/h
17.06.2019 15:20 24,0 C 25,2 C 22,9 C 63 % 74 % 1019,9 hPa 0,0 l/m 0,0 km/h N 360 15,8 C 0,0 km/h
17.06.2019 15:15 23,9 C 25,1 C 22,8 C 63 % 74 % 1019,9 hPa 0,0 l/m 0,0 km/h N 360 16,0 C 0,0 km/h
17.06.2019 15:10 23,9 C 25,0 C 22,5 C 63 % 74 % 1019,9 hPa 0,0 l/m 0,0 km/h N 360 15,9 C 0,0 km/h
17.06.2019 15:05 23,9 C 25,0 C 22,7 C 63 % 74 % 1019,9 hPa 0,0 l/m 0,0 km/h N 360 15,9 C 0,0 km/h
17.06.2019 15:00 23,9 C 24,9 C 22,8 C 63 % 74 % 1020,2 hPa 0,0 l/m 0,0 km/h N 360 15,8 C 0,0 km/h
17.06.2019 14:55 23,9 C 24,8 C 22,8 C 63 % 74 % 1020,2 hPa 0,0 l/m 0,0 km/h N 360 15,1 C 0,0 km/h
17.06.2019 14:50 23,9 C 24,8 C 22,7 C 64 % 74 % 1020,2 hPa 0,0 l/m 0,0 km/h N 360 15,1 C 0,0 km/h
17.06.2019 14:45 23,9 C 24,8 C 22,6 C 63 % 74 % 1020,2 hPa 0,0 l/m 0,0 km/h N 360 15,1 C 0,0 km/h
17.06.2019 14:40 23,8 C 24,8 C 22,5 C 63 % 74 % 1020,5 hPa 0,0 l/m 0,0 km/h N 360 15,4 C 0,0 km/h
17.06.2019 14:35 23,8 C 24,7 C 22,5 C 63 % 74 % 1020,5 hPa 0,0 l/m 0,0 km/h N 360 15,6 C 0,0 km/h
17.06.2019 14:30 23,8 C 24,6 C 22,4 C 63 % 73 % 1020,5 hPa 0,0 l/m 0,0 km/h N 360 15,5 C 0,0 km/h
17.06.2019 14:25 23,8 C 24,7 C 22,5 C 63 % 74 % 1020,5 hPa 0,0 l/m 0,0 km/h N 360 15,6 C 0,0 km/h
17.06.2019 14:20 23,8 C 24,7 C 22,3 C 63 % 74 % 1020,5 hPa 0,0 l/m 0,0 km/h N 360 15,6 C 0,0 km/h
17.06.2019 14:15 23,8 C 24,5 C 22,3 C 63 % 73 % 1020,5 hPa 0,0 l/m 0,0 km/h N 360 15,7 C 0,0 km/h
17.06.2019 14:10 23,8 C 24,4 C 22,0 C 63 % 73 % 1020,5 hPa 0,0 l/m 0,0 km/h N 360 15,6 C 0,0 km/h
17.06.2019 14:05 23,8 C 24,4 C 21,9 C 63 % 73 % 1020,5 hPa 0,0 l/m 0,0 km/h N 360 15,0 C 0,0 km/h
17.06.2019 14:00 23,8 C 24,5 C 22,1 C 63 % 73 % 1020,5 hPa 0,0 l/m 0,0 km/h N 360 15,1 C 0,0 km/h
17.06.2019 13:55 23,8 C 24,4 C 22,0 C 63 % 73 % 1020,5 hPa 0,0 l/m 0,0 km/h N 360 15,0 C 0,0 km/h
17.06.2019 13:50 23,7 C 24,3 C 21,9 C 63 % 73 % 1020,5 hPa 0,0 l/m 0,0 km/h N 360 15,2 C 0,0 km/h
17.06.2019 13:45 23,7 C 24,3 C 22,0 C 63 % 73 % 1020,5 hPa 0,0 l/m 0,0 km/h N 360 14,9 C 0,0 km/h
17.06.2019 13:40 23,7 C 24,3 C 22,1 C 63 % 73 % 1020,6 hPa 0,0 l/m 0,0 km/h N 360 14,9 C 0,0 km/h
17.06.2019 13:35 23,7 C 24,3 C 22,0 C 63 % 73 % 1020,6 hPa 0,0 l/m 0,0 km/h N 360 15,2 C 0,0 km/h
17.06.2019 13:30 23,7 C 24,3 C 22,1 C 63 % 73 % 1020,6 hPa 0,0 l/m 0,0 km/h N 360 15,2 C 0,0 km/h
17.06.2019 13:25 23,7 C 24,3 C 22,1 C 63 % 73 % 1020,6 hPa 0,0 l/m 0,0 km/h N 360 15,2 C 0,0 km/h
17.06.2019 13:20 23,7 C 24,3 C 21,9 C 63 % 73 % 1020,6 hPa 0,0 l/m 0,0 km/h N 360 14,9 C 0,0 km/h
17.06.2019 13:15 23,6 C 24,3 C 21,8 C 63 % 73 % 1020,6 hPa 0,0 l/m 0,0 km/h N 360 15,2 C 0,0 km/h
17.06.2019 13:10 23,6 C 24,3 C 21,7 C 63 % 73 % 1020,6 hPa 0,0 l/m 0,0 km/h N 360 15,5 C 0,0 km/h
17.06.2019 13:05 23,6 C 24,1 C 21,6 C 63 % 73 % 1020,6 hPa 0,0 l/m 0,0 km/h N 360 15,0 C 0,0 km/h
17.06.2019 13:00 23,6 C 24,0 C 21,6 C 63 % 72 % 1020,9 hPa 0,0 l/m 0,0 km/h N 360 15,2 C 0,0 km/h
17.06.2019 12:55 23,6 C 24,0 C 21,6 C 63 % 72 % 1020,9 hPa 0,0 l/m 0,0 km/h N 360 14,9 C 0,0 km/h
17.06.2019 12:50 23,6 C 23,9 C 21,5 C 63 % 72 % 1020,9 hPa 0,0 l/m 0,0 km/h N 360 15,1 C 0,0 km/h
17.06.2019 12:45 23,6 C 23,9 C 21,3 C 63 % 72 % 1020,9 hPa 0,0 l/m 0,0 km/h N 360 15,1 C 0,0 km/h
17.06.2019 12:40 23,6 C 23,7 C 21,3 C 63 % 72 % 1021,0 hPa 0,0 l/m 0,0 km/h N 360 15,2 C 0,0 km/h
17.06.2019 12:35 23,5 C 23,6 C 21,4 C 63 % 72 % 1021,0 hPa 0,0 l/m 0,0 km/h N 360 14,8 C 0,0 km/h
17.06.2019 12:30 23,5 C 23,7 C 21,3 C 63 % 72 % 1021,0 hPa 0,0 l/m 0,0 km/h N 360 14,9 C 0,0 km/h
17.06.2019 12:25 23,5 C 23,7 C 21,3 C 63 % 72 % 1021,0 hPa 0,0 l/m 0,0 km/h N 360 14,9 C 0,0 km/h
17.06.2019 12:20 23,5 C 23,5 C 21,1 C 63 % 72 % 1021,0 hPa 0,0 l/m 0,0 km/h N 360 15,0 C 0,0 km/h
17.06.2019 12:15 23,4 C 23,3 C 21,0 C 63 % 71 % 1021,0 hPa 0,0 l/m 0,0 km/h N 360 14,8 C 0,0 km/h
17.06.2019 12:10 23,4 C 23,2 C 20,9 C 63 % 71 % 1021,0 hPa 0,0 l/m 0,0 km/h N 360 14,7 C 0,0 km/h
17.06.2019 12:05 23,4 C 23,1 C 20,9 C 63 % 71 % 1021,0 hPa 0,0 l/m 0,0 km/h N 360 14,6 C 0,0 km/h
17.06.2019 12:00 23,4 C 23,1 C 20,8 C 63 % 71 % 1021,2 hPa 0,0 l/m 0,0 km/h N 360 14,9 C 0,0 km/h
17.06.2019 11:55 23,4 C 23,1 C 20,8 C 63 % 71 % 1021,2 hPa 0,0 l/m 0,0 km/h N 360 14,9 C 0,0 km/h
17.06.2019 11:50 23,4 C 22,9 C 20,8 C 63 % 71 % 1021,2 hPa 0,0 l/m 0,0 km/h N 360 15,0 C 0,0 km/h
17.06.2019 11:45 23,4 C 22,8 C 20,8 C 64 % 70 % 1021,2 hPa 0,0 l/m 0,0 km/h N 360 15,1 C 0,0 km/h
17.06.2019 11:40 23,2 C 22,7 C 20,7 C 64 % 70 % 1021,3 hPa 0,0 l/m 0,0 km/h N 360 15,0 C 0,0 km/h
17.06.2019 11:35 23,3 C 22,5 C 20,6 C 63 % 70 % 1021,3 hPa 0,0 l/m 0,0 km/h N 360 14,8 C 0,0 km/h
17.06.2019 11:32 23,3 C 22,5 C 20,6 C 63 % 70 % 1021,3 hPa 0,0 l/m 0,0 km/h N 360 14,8 C 0,0 km/h
17.06.2019 11:27 23,3 C 22,5 C 20,5 C 63 % 70 % 1021,3 hPa 0,0 l/m 0,0 km/h N 360 15,1 C 0,0 km/h
17.06.2019 11:22 23,2 C 22,4 C 20,5 C 63 % 70 % 1021,3 hPa 0,0 l/m 0,0 km/h N 360 15,0 C 0,0 km/h
17.06.2019 11:17 23,2 C 22,3 C 20,5 C 63 % 69 % 1021,4 hPa 0,0 l/m 0,0 km/h N 360 14,9 C 0,0 km/h
17.06.2019 11:15 23,2 C 22,2 C 20,5 C 63 % 69 % 1021,4 hPa 0,0 l/m 0,0 km/h N 360 14,8 C 0,0 km/h
17.06.2019 11:10 23,2 C 22,1 C 20,3 C 63 % 69 % 1021,4 hPa 0,0 l/m 0,0 km/h N 360 15,0 C 0,0 km/h
17.06.2019 11:09 23,2 C 22,1 C 20,3 C 63 % 69 % 1021,4 hPa 0,0 l/m 0,0 km/h N 360 15,0 C 0,0 km/h
17.06.2019 11:07 23,2 C 22,1 C 20,3 C 63 % 69 % 1021,4 hPa 0,0 l/m 0,0 km/h N 360 15,0 C 0,0 km/h
17.06.2019 11:02 23,2 C 22,1 C 20,2 C 63 % 69 % 1021,4 hPa 0,0 l/m 0,0 km/h N 360 15,0 C 0,0 km/h
17.06.2019 10:57 23,1 C 21,9 C 20,1 C 62 % 69 % 1021,6 hPa 0,0 l/m 0,0 km/h N 360 14,8 C 0,0 km/h
17.06.2019 10:52 23,1 C 21,9 C 20,0 C 62 % 69 % 1021,6 hPa 0,0 l/m 0,0 km/h N 360 14,8 C 0,0 km/h
17.06.2019 10:47 23,1 C 21,7 C 19,9 C 62 % 68 % 1021,6 hPa 0,0 l/m 0,0 km/h N 360 15,3 C 0,0 km/h
17.06.2019 10:47 23,1 C 21,7 C 19,9 C 62 % 68 % 1021,6 hPa 0,0 l/m 0,0 km/h N 360 15,3 C 0,0 km/h
17.06.2019 10:42 23,1 C 21,7 C 19,8 C 62 % 68 % 1021,6 hPa 0,0 l/m 0,0 km/h N 360 15,5 C 0,0 km/h
17.06.2019 10:42 23,1 C 21,7 C 19,8 C 62 % 68 % 1021,6 hPa 0,0 l/m 0,0 km/h N 360 15,5 C 0,0 km/h
17.06.2019 10:37 23,1 C 21,5 C 19,7 C 62 % 68 % 1021,8 hPa 0,0 l/m 0,0 km/h N 360 15,1 C 0,0 km/h
17.06.2019 10:37 23,1 C 21,5 C 19,7 C 62 % 68 % 1021,8 hPa 0,0 l/m 0,0 km/h N 360 15,1 C 0,0 km/h
17.06.2019 10:32 23,1 C 21,3 C 19,6 C 62 % 68 % 1021,8 hPa 0,0 l/m 0,0 km/h N 360 15,4 C 0,0 km/h
17.06.2019 10:27 23,1 C 21,2 C 19,6 C 62 % 68 % 1021,8 hPa 0,0 l/m 0,0 km/h N 360 14,8 C 0,0 km/h
17.06.2019 10:22 23,0 C 21,2 C 19,6 C 61 % 68 % 1021,8 hPa 0,0 l/m 0,0 km/h N 360 14,8 C 0,0 km/h
17.06.2019 10:22 23,0 C 21,2 C 19,6 C 61 % 68 % 1021,8 hPa 0,0 l/m 0,0 km/h N 360 14,8 C 0,0 km/h
17.06.2019 10:17 23,0 C 20,9 C 19,5 C 61 % 67 % 1022,0 hPa 0,0 l/m 0,0 km/h N 360 15,0 C 0,0 km/h
17.06.2019 10:12 23,0 C 20,9 C 19,3 C 60 % 67 % 1022,0 hPa 0,0 l/m 0,0 km/h N 360 14,8 C 0,0 km/h
17.06.2019 10:12 23,0 C 20,9 C 19,3 C 60 % 67 % 1022,0 hPa 0,0 l/m 0,0 km/h N 360 14,8 C 0,0 km/h
17.06.2019 10:07 23,0 C 20,8 C 19,2 C 61 % 67 % 1022,0 hPa 0,0 l/m 0,0 km/h N 360 14,9 C 0,0 km/h
17.06.2019 10:02 23,0 C 20,7 C 19,3 C 61 % 67 % 1022,0 hPa 0,0 l/m 0,0 km/h N 360 14,8 C 0,0 km/h
17.06.2019 09:57 23,0 C 20,5 C 19,2 C 61 % 66 % 1022,1 hPa 0,0 l/m 0,0 km/h N 360 14,6 C 0,0 km/h
17.06.2019 09:52 23,0 C 20,3 C 19,1 C 61 % 66 % 1022,1 hPa 0,0 l/m 0,0 km/h N 360 14,6 C 0,0 km/h
17.06.2019 09:52 23,0 C 20,3 C 19,1 C 61 % 66 % 1022,1 hPa 0,0 l/m 0,0 km/h N 360 14,6 C 0,0 km/h
17.06.2019 09:47 23,0 C 20,1 C 18,9 C 61 % 66 % 1022,1 hPa 0,0 l/m 0,0 km/h N 360 14,5 C 0,0 km/h
17.06.2019 09:42 23,0 C 20,0 C 18,9 C 61 % 66 % 1022,1 hPa 0,0 l/m 0,0 km/h N 360 14,8 C 0,0 km/h
17.06.2019 09:42 23,0 C 20,0 C 18,9 C 61 % 66 % 1022,1 hPa 0,0 l/m 0,0 km/h N 360 14,8 C 0,0 km/h
17.06.2019 09:37 23,0 C 19,8 C 18,8 C 61 % 65 % 1022,1 hPa 0,0 l/m 0,0 km/h N 360 14,6 C 0,0 km/h
17.06.2019 09:32 22,9 C 19,6 C 18,7 C 61 % 65 % 1022,1 hPa 0,0 l/m 0,0 km/h N 360 14,4 C 0,0 km/h
17.06.2019 09:32 22,9 C 19,6 C 18,7 C 61 % 65 % 1022,1 hPa 0,0 l/m 0,0 km/h N 360 14,4 C 0,0 km/h
17.06.2019 09:27 22,9 C 19,4 C 18,4 C 61 % 64 % 1022,1 hPa 0,0 l/m 0,0 km/h N 360 14,4 C 0,0 km/h
17.06.2019 09:22 22,9 C 19,3 C 18,5 C 61 % 64 % 1022,1 hPa 0,0 l/m 0,0 km/h N 360 14,3 C 0,0 km/h
17.06.2019 09:22 22,9 C 19,3 C 18,5 C 61 % 64 % 1022,1 hPa 0,0 l/m 0,0 km/h N 360 14,3 C 0,0 km/h
17.06.2019 09:17 22,8 C 19,2 C 18,3 C 61 % 64 % 1022,1 hPa 0,0 l/m 0,0 km/h N 360 14,4 C 0,0 km/h
17.06.2019 09:17 22,8 C 19,2 C 18,3 C 61 % 64 % 1022,1 hPa 0,0 l/m 0,0 km/h N 360 14,4 C 0,0 km/h
17.06.2019 09:12 22,8 C 18,9 C 18,2 C 61 % 64 % 1022,1 hPa 0,0 l/m 0,0 km/h N 360 14,4 C 0,0 km/h
17.06.2019 09:07 22,8 C 18,7 C 18,0 C 61 % 63 % 1022,1 hPa 0,0 l/m 0,0 km/h N 360 14,4 C 0,0 km/h
17.06.2019 09:07 22,8 C 18,7 C 18,0 C 61 % 63 % 1022,1 hPa 0,0 l/m 0,0 km/h N 360 14,4 C 0,0 km/h
17.06.2019 09:02 22,8 C 18,4 C 17,9 C 61 % 63 % 1022,1 hPa 0,0 l/m 0,0 km/h N 360 14,1 C 0,0 km/h
17.06.2019 09:02 22,8 C 18,4 C 17,9 C 61 % 63 % 1022,1 hPa 0,0 l/m 0,0 km/h N 360 14,1 C 0,0 km/h
17.06.2019 08:57 22,8 C 18,3 C 17,6 C 60 % 63 % 1022,2 hPa 0,0 l/m 0,0 km/h N 360 14,2 C 0,0 km/h
17.06.2019 08:57 22,8 C 18,3 C 17,6 C 60 % 63 % 1022,2 hPa 0,0 l/m 0,0 km/h N 360 14,2 C 0,0 km/h
17.06.2019 08:52 22,8 C 18,1 C 17,5 C 60 % 62 % 1022,2 hPa 0,0 l/m 0,0 km/h N 360 14,2 C 0,0 km/h
17.06.2019 08:47 22,8 C 17,8 C 17,3 C 60 % 62 % 1022,2 hPa 0,0 l/m 0,0 km/h N 360 14,1 C 0,0 km/h
17.06.2019 08:42 22,7 C 17,8 C 17,3 C 60 % 62 % 1022,2 hPa 0,0 l/m 0,0 km/h N 360 14,1 C 0,0 km/h
17.06.2019 08:37 22,7 C 17,5 C 17,1 C 60 % 61 % 1022,3 hPa 0,0 l/m 0,0 km/h N 360 14,0 C 0,0 km/h
17.06.2019 08:37 22,7 C 17,5 C 17,1 C 60 % 61 % 1022,3 hPa 0,0 l/m 0,0 km/h N 360 14,0 C 0,0 km/h
17.06.2019 08:32 22,7 C 17,4 C 17,1 C 60 % 61 % 1022,3 hPa 0,0 l/m 0,0 km/h N 360 14,1 C 0,0 km/h
17.06.2019 08:27 22,6 C 17,1 C 16,8 C 60 % 61 % 1022,3 hPa 0,0 l/m 0,0 km/h N 360 14,0 C 0,0 km/h
17.06.2019 08:27 22,6 C 17,1 C 16,8 C 60 % 61 % 1022,3 hPa 0,0 l/m 0,0 km/h N 360 14,0 C 0,0 km/h
17.06.2019 08:22 22,6 C 16,9 C 16,8 C 60 % 60 % 1022,3 hPa 0,0 l/m 0,0 km/h N 360 14,0 C 0,0 km/h
17.06.2019 08:22 22,6 C 16,9 C 16,8 C 60 % 60 % 1022,3 hPa 0,0 l/m 0,0 km/h N 360 14,0 C 0,0 km/h
17.06.2019 08:17 22,5 C 16,7 C 16,6 C 60 % 60 % 1022,4 hPa 0,0 l/m 0,0 km/h N 360 14,0 C 0,0 km/h
17.06.2019 08:12 22,5 C 16,4 C 16,4 C 60 % 59 % 1022,4 hPa 0,0 l/m 0,0 km/h N 360 13,7 C 0,0 km/h
17.06.2019 08:07 22,5 C 16,3 C 16,3 C 60 % 59 % 1022,4 hPa 0,0 l/m 0,0 km/h N 360 13,6 C 0,0 km/h
17.06.2019 08:07 22,5 C 16,3 C 16,3 C 60 % 59 % 1022,4 hPa 0,0 l/m 0,0 km/h N 360 13,6 C 0,0 km/h
17.06.2019 08:02 22,4 C 16,0 C 16,2 C 60 % 59 % 1022,4 hPa 0,0 l/m 0,0 km/h N 360 13,5 C 0,0 km/h
17.06.2019 08:02 22,4 C 16,0 C 16,2 C 60 % 59 % 1022,4 hPa 0,0 l/m 0,0 km/h N 360 13,5 C 0,0 km/h
17.06.2019 07:57 22,4 C 15,9 C 15,9 C 60 % 58 % 1022,2 hPa 0,0 l/m 0,0 km/h N 360 13,6 C 0,0 km/h
17.06.2019 07:52 22,4 C 15,7 C 15,9 C 60 % 58 % 1022,2 hPa 0,0 l/m 0,0 km/h N 360 13,4 C 0,0 km/h
17.06.2019 07:47 22,2 C 15,3 C 15,6 C 60 % 57 % 1022,2 hPa 0,0 l/m 0,0 km/h N 360 13,0 C 0,0 km/h
17.06.2019 07:42 22,2 C 15,3 C 15,5 C 60 % 57 % 1022,2 hPa 0,0 l/m 0,0 km/h N 360 13,1 C 0,0 km/h
17.06.2019 07:42 22,2 C 15,3 C 15,5 C 60 % 57 % 1022,2 hPa 0,0 l/m 0,0 km/h N 360 13,1 C 0,0 km/h
17.06.2019 07:37 22,2 C 15,1 C 15,3 C 60 % 57 % 1022,1 hPa 0,0 l/m 0,0 km/h N 360 13,0 C 0,0 km/h
17.06.2019 07:32 22,1 C 14,9 C 15,3 C 59 % 57 % 1022,1 hPa 0,0 l/m 0,0 km/h N 360 12,8 C 0,0 km/h
17.06.2019 07:32 22,1 C 14,9 C 15,3 C 59 % 57 % 1022,1 hPa 0,0 l/m 0,0 km/h N 360 12,8 C 0,0 km/h
17.06.2019 07:27 22,0 C 14,7 C 15,1 C 59 % 56 % 1022,1 hPa 0,0 l/m 0,0 km/h N 360 12,7 C 0,0 km/h
17.06.2019 07:22 22,0 C 14,5 C 14,8 C 59 % 56 % 1022,1 hPa 0,0 l/m 0,0 km/h N 360 12,5 C 0,0 km/h
17.06.2019 07:17 22,0 C 14,3 C 14,5 C 59 % 56 % 1022,0 hPa 0,0 l/m 0,0 km/h N 360 12,3 C 0,0 km/h
17.06.2019 07:12 22,0 C 14,1 C 14,4 C 59 % 55 % 1022,0 hPa 0,0 l/m 0,0 km/h N 360 12,1 C 0,0 km/h
17.06.2019 07:12 22,0 C 14,1 C 14,4 C 59 % 55 % 1022,0 hPa 0,0 l/m 0,0 km/h N 360 12,1 C 0,0 km/h
17.06.2019 07:07 22,0 C 14,0 C 14,3 C 59 % 55 % 1022,0 hPa 0,0 l/m 0,0 km/h N 360 12,2 C 0,0 km/h
17.06.2019 07:07 22,0 C 14,0 C 14,3 C 59 % 55 % 1022,0 hPa 0,0 l/m 0,0 km/h N 360 12,2 C 0,0 km/h
17.06.2019 07:02 22,0 C 13,9 C 14,1 C 59 % 55 % 1022,0 hPa 0,0 l/m 0,0 km/h N 360 12,1 C 0,0 km/h
17.06.2019 06:57 21,9 C 13,6 C 14,0 C 59 % 54 % 1022,1 hPa 0,0 l/m 0,0 km/h N 360 11,8 C 0,0 km/h
17.06.2019 06:52 22,0 C 13,6 C 13,9 C 59 % 54 % 1022,1 hPa 0,0 l/m 0,0 km/h N 360 11,8 C 0,0 km/h
17.06.2019 06:52 22,0 C 13,6 C 13,9 C 59 % 54 % 1022,1 hPa 0,0 l/m 0,0 km/h N 360 11,8 C 0,0 km/h
17.06.2019 06:47 22,0 C 13,4 C 14,0 C 58 % 54 % 1022,1 hPa 0,0 l/m 0,0 km/h N 360 11,5 C 0,0 km/h
17.06.2019 06:47 22,0 C 13,4 C 14,0 C 58 % 54 % 1022,1 hPa 0,0 l/m 0,0 km/h N 360 11,5 C 0,0 km/h
17.06.2019 06:42 22,0 C 13,5 C 13,9 C 58 % 54 % 1022,1 hPa 0,0 l/m 0,0 km/h N 360 11,7 C 0,0 km/h
17.06.2019 06:42 22,0 C 13,5 C 13,9 C 58 % 54 % 1022,1 hPa 0,0 l/m 0,0 km/h N 360 11,7 C 0,0 km/h
17.06.2019 06:37 22,0 C 13,3 C 13,7 C 58 % 54 % 1022,1 hPa 0,0 l/m 0,0 km/h N 360 11,4 C 0,0 km/h
17.06.2019 06:37 22,0 C 13,3 C 13,7 C 58 % 54 % 1022,1 hPa 0,0 l/m 0,0 km/h N 360 11,4 C 0,0 km/h
17.06.2019 06:32 22,0 C 13,3 C 13,6 C 58 % 54 % 1022,1 hPa 0,0 l/m 0,0 km/h N 360 11,4 C 0,0 km/h
17.06.2019 06:27 22,1 C 13,3 C 13,6 C 58 % 54 % 1022,1 hPa 0,0 l/m 0,0 km/h N 360 11,4 C 0,0 km/h
17.06.2019 06:27 22,1 C 13,3 C 13,6 C 58 % 54 % 1022,1 hPa 0,0 l/m 0,0 km/h N 360 11,4 C 0,0 km/h
17.06.2019 06:22 22,1 C 13,2 C 13,6 C 58 % 54 % 1022,1 hPa 0,0 l/m 0,0 km/h N 360 11,3 C 0,0 km/h
17.06.2019 06:17 22,2 C 13,2 C 13,6 C 58 % 54 % 1022,1 hPa 0,0 l/m 0,0 km/h N 360 11,3 C 0,0 km/h
17.06.2019 06:17 22,2 C 13,2 C 13,6 C 58 % 54 % 1022,1 hPa 0,0 l/m 0,0 km/h N 360 11,3 C 0,0 km/h
17.06.2019 06:12 22,2 C 13,2 C 13,7 C 58 % 54 % 1022,1 hPa 0,0 l/m 0,0 km/h N 360 11,3 C 0,0 km/h
17.06.2019 06:07 22,2 C 13,1 C 13,9 C 58 % 54 % 1022,1 hPa 0,0 l/m 0,0 km/h N 360 11,2 C 0,0 km/h
17.06.2019 06:02 22,2 C 13,1 C 13,7 C 58 % 54 % 1022,1 hPa 0,0 l/m 0,0 km/h N 360 11,2 C 0,0 km/h
17.06.2019 06:02 22,2 C 13,1 C 13,7 C 58 % 54 % 1022,1 hPa 0,0 l/m 0,0 km/h N 360 11,2 C 0,0 km/h
17.06.2019 05:57 22,2 C 13,1 C 13,7 C 58 % 54 % 1022,1 hPa 0,0 l/m 0,0 km/h N 360 11,2 C 0,0 km/h
17.06.2019 05:52 22,3 C 13,2 C 13,6 C 58 % 54 % 1022,1 hPa 0,0 l/m 0,0 km/h N 360 11,1 C 0,0 km/h
17.06.2019 05:47 22,3 C 13,2 C 13,6 C 58 % 54 % 1022,1 hPa 0,0 l/m 0,0 km/h N 360 11,3 C 0,0 km/h
17.06.2019 05:42 22,2 C 13,2 C 13,7 C 58 % 54 % 1022,1 hPa 0,0 l/m 0,0 km/h N 360 11,1 C 0,0 km/h
17.06.2019 05:37 22,4 C 13,2 C 13,6 C 58 % 54 % 1022,2 hPa 0,0 l/m 0,0 km/h N 360 11,1 C 0,0 km/h
17.06.2019 05:32 22,4 C 13,2 C 13,7 C 58 % 54 % 1022,2 hPa 0,0 l/m 0,0 km/h N 360 11,1 C 0,0 km/h
17.06.2019 05:27 22,4 C 13,3 C 13,6 C 58 % 54 % 1022,2 hPa 0,0 l/m 0,0 km/h N 360 11,2 C 0,0 km/h
17.06.2019 05:27 22,4 C 13,3 C 13,6 C 58 % 54 % 1022,2 hPa 0,0 l/m 0,0 km/h N 360 11,2 C 0,0 km/h
17.06.2019 05:22 22,4 C 13,3 C 13,7 C 58 % 54 % 1022,2 hPa 0,0 l/m 0,0 km/h N 360 11,2 C 0,0 km/h
17.06.2019 05:17 22,4 C 13,3 C 13,7 C 58 % 54 % 1022,5 hPa 0,0 l/m 0,0 km/h N 360 11,2 C 0,0 km/h
17.06.2019 05:12 22,4 C 13,3 C 13,9 C 58 % 54 % 1022,5 hPa 0,0 l/m 0,0 km/h N 360 11,2 C 0,0 km/h
17.06.2019 05:12 22,4 C 13,3 C 13,9 C 58 % 54 % 1022,5 hPa 0,0 l/m 0,0 km/h N 360 11,2 C 0,0 km/h
17.06.2019 05:07 22,4 C 13,5 C 14,1 C 58 % 54 % 1022,5 hPa 0,0 l/m 0,0 km/h N 360 11,4 C 0,0 km/h
17.06.2019 05:07 22,4 C 13,5 C 14,1 C 58 % 54 % 1022,5 hPa 0,0 l/m 0,0 km/h N 360 11,4 C 0,0 km/h
17.06.2019 05:02 22,5 C 13,5 C 14,0 C 59 % 54 % 1022,5 hPa 0,0 l/m 0,0 km/h N 360 11,2 C 0,0 km/h
17.06.2019 05:02 22,5 C 13,5 C 14,0 C 59 % 54 % 1022,5 hPa 0,0 l/m 0,0 km/h N 360 11,2 C 0,0 km/h
17.06.2019 04:57 22,5 C 13,5 C 14,1 C 58 % 54 % 1022,2 hPa 0,0 l/m 0,0 km/h N 360 11,4 C 0,0 km/h
17.06.2019 04:52 22,5 C 13,5 C 14,1 C 59 % 54 % 1022,2 hPa 0,0 l/m 0,0 km/h N 360 11,4 C 0,0 km/h
17.06.2019 04:47 22,6 C 13,5 C 14,1 C 59 % 54 % 1022,2 hPa 0,0 l/m 0,0 km/h N 360 11,4 C 0,0 km/h
17.06.2019 04:47 22,6 C 13,5 C 14,1 C 59 % 54 % 1022,2 hPa 0,0 l/m 0,0 km/h N 360 11,4 C 0,0 km/h
17.06.2019 04:42 22,6 C 13,6 C 14,0 C 59 % 54 % 1022,2 hPa 0,0 l/m 0,0 km/h N 360 11,3 C 0,0 km/h
17.06.2019 04:42 22,6 C 13,6 C 14,0 C 59 % 54 % 1022,2 hPa 0,0 l/m 0,0 km/h N 360 11,3 C 0,0 km/h
17.06.2019 04:37 22,6 C 13,6 C 14,0 C 59 % 54 % 1022,3 hPa 0,0 l/m 0,0 km/h N 360 11,5 C 0,0 km/h
17.06.2019 04:32 22,6 C 13,6 C 14,0 C 59 % 54 % 1022,3 hPa 0,0 l/m 0,0 km/h N 360 11,3 C 0,0 km/h
17.06.2019 04:32 22,6 C 13,6 C 14,0 C 59 % 54 % 1022,3 hPa 0,0 l/m 0,0 km/h N 360 11,3 C 0,0 km/h
17.06.2019 04:27 22,6 C 13,7 C 14,1 C 59 % 55 % 1022,3 hPa 0,0 l/m 0,0 km/h N 360 11,4 C 0,0 km/h
17.06.2019 04:22 22,6 C 13,7 C 14,1 C 59 % 55 % 1022,3 hPa 0,0 l/m 0,0 km/h N 360 11,4 C 0,0 km/h
17.06.2019 04:22 22,6 C 13,7 C 14,1 C 59 % 55 % 1022,3 hPa 0,0 l/m 0,0 km/h N 360 11,4 C 0,0 km/h
17.06.2019 04:17 22,6 C 13,8 C 14,1 C 58 % 55 % 1022,2 hPa 0,0 l/m 0,0 km/h N 360 11,5 C 0,0 km/h
17.06.2019 04:12 22,7 C 13,9 C 14,2 C 59 % 55 % 1022,2 hPa 0,0 l/m 0,0 km/h N 360 11,6 C 0,0 km/h
17.06.2019 04:12 22,7 C 13,9 C 14,2 C 59 % 55 % 1022,2 hPa 0,0 l/m 0,0 km/h N 360 11,6 C 0,0 km/h
17.06.2019 04:07 22,7 C 13,8 C 14,3 C 59 % 55 % 1022,2 hPa 0,0 l/m 0,0 km/h N 360 11,5 C 0,0 km/h
17.06.2019 04:02 22,8 C 13,9 C 14,2 C 59 % 55 % 1022,2 hPa 0,0 l/m 0,0 km/h N 360 11,6 C 0,0 km/h
17.06.2019 03:57 22,8 C 14,0 C 14,5 C 59 % 55 % 1022,6 hPa 0,0 l/m 0,0 km/h N 360 11,7 C 0,0 km/h
17.06.2019 03:57 22,8 C 14,0 C 14,5 C 59 % 55 % 1022,6 hPa 0,0 l/m 0,0 km/h N 360 11,7 C 0,0 km/h
17.06.2019 03:52 22,8 C 14,0 C 14,5 C 59 % 55 % 1022,6 hPa 0,0 l/m 0,0 km/h N 360 11,7 C 0,0 km/h
17.06.2019 03:47 22,8 C 14,0 C 14,4 C 59 % 55 % 1022,6 hPa 0,0 l/m 0,0 km/h N 360 11,5 C 0,0 km/h
17.06.2019 03:42 22,8 C 14,1 C 14,4 C 59 % 55 % 1022,6 hPa 0,0 l/m 0,0 km/h N 360 11,8 C 0,0 km/h
17.06.2019 03:37 22,9 C 14,3 C 14,5 C 59 % 56 % 1022,8 hPa 0,0 l/m 0,0 km/h N 360 12,0 C 0,0 km/h
17.06.2019 03:37 22,9 C 14,3 C 14,5 C 59 % 56 % 1022,8 hPa 0,0 l/m 0,0 km/h N 360 12,0 C 0,0 km/h
17.06.2019 03:32 22,9 C 14,2 C 14,5 C 59 % 56 % 1022,8 hPa 0,0 l/m 0,0 km/h N 360 11,7 C 0,0 km/h
17.06.2019 03:32 22,9 C 14,2 C 14,5 C 59 % 56 % 1022,8 hPa 0,0 l/m 0,0 km/h N 360 11,7 C 0,0 km/h
17.06.2019 03:27 23,0 C 14,3 C 14,7 C 59 % 56 % 1022,8 hPa 0,0 l/m 0,0 km/h N 360 11,8 C 0,0 km/h
17.06.2019 03:22 23,0 C 14,4 C 14,7 C 59 % 56 % 1022,8 hPa 0,0 l/m 0,0 km/h N 360 11,9 C 0,0 km/h
17.06.2019 03:17 23,0 C 14,4 C 14,8 C 59 % 56 % 1022,9 hPa 0,0 l/m 0,0 km/h N 360 11,9 C 0,0 km/h
17.06.2019 03:12 23,0 C 14,5 C 14,8 C 59 % 56 % 1022,9 hPa 0,0 l/m 0,0 km/h N 360 12,0 C 0,0 km/h
17.06.2019 03:07 23,1 C 14,6 C 14,7 C 59 % 56 % 1022,9 hPa 0,0 l/m 0,0 km/h N 360 12,1 C 0,0 km/h
17.06.2019 03:02 23,1 C 14,6 C 14,9 C 59 % 56 % 1022,9 hPa 0,0 l/m 0,0 km/h N 360 12,1 C 0,0 km/h
17.06.2019 03:02 23,1 C 14,6 C 14,9 C 59 % 56 % 1022,9 hPa 0,0 l/m 0,0 km/h N 360 12,1 C 0,0 km/h
17.06.2019 02:57 23,2 C 14,7 C 14,8 C 59 % 56 % 1023,0 hPa 0,0 l/m 0,0 km/h N 360 12,2 C 0,0 km/h
17.06.2019 02:52 23,2 C 14,7 C 14,9 C 59 % 56 % 1023,0 hPa 0,0 l/m 0,0 km/h N 360 12,2 C 0,0 km/h
17.06.2019 02:47 23,2 C 14,8 C 14,9 C 59 % 57 % 1023,0 hPa 0,0 l/m 0,0 km/h N 360 12,1 C 0,0 km/h
17.06.2019 02:42 23,2 C 14,9 C 14,8 C 59 % 57 % 1023,0 hPa 0,0 l/m 0,0 km/h N 360 12,2 C 0,0 km/h
17.06.2019 02:42 23,2 C 14,9 C 14,8 C 59 % 57 % 1023,0 hPa 0,0 l/m 0,0 km/h N 360 12,2 C 0,0 km/h
17.06.2019 02:37 23,2 C 14,9 C 15,1 C 59 % 57 % 1022,9 hPa 0,0 l/m 0,0 km/h N 360 12,2 C 0,0 km/h
17.06.2019 02:32 23,3 C 14,9 C 15,3 C 59 % 57 % 1022,9 hPa 0,0 l/m 0,0 km/h N 360 12,2 C 0,0 km/h
17.06.2019 02:27 23,2 C 15,0 C 15,3 C 59 % 57 % 1022,9 hPa 0,0 l/m 0,0 km/h N 360 12,3 C 0,0 km/h
17.06.2019 02:22 23,4 C 15,1 C 15,3 C 59 % 57 % 1022,9 hPa 0,0 l/m 0,0 km/h N 360 12,2 C 0,0 km/h
17.06.2019 02:17 23,5 C 15,2 C 15,3 C 59 % 57 % 1022,9 hPa 0,0 l/m 0,0 km/h N 360 12,3 C 0,0 km/h
17.06.2019 02:12 23,5 C 15,3 C 15,3 C 59 % 57 % 1022,9 hPa 0,0 l/m 0,0 km/h N 360 12,4 C 0,0 km/h
17.06.2019 02:07 23,5 C 15,3 C 15,3 C 59 % 57 % 1022,9 hPa 0,0 l/m 0,0 km/h N 360 12,2 C 0,0 km/h
17.06.2019 02:07 23,5 C 15,3 C 15,3 C 59 % 57 % 1022,9 hPa 0,0 l/m 0,0 km/h N 360 12,2 C 0,0 km/h
17.06.2019 02:02 23,6 C 15,3 C 15,3 C 59 % 57 % 1022,9 hPa 0,0 l/m 0,0 km/h N 360 12,2 C 0,0 km/h
17.06.2019 01:57 23,6 C 15,5 C 15,5 C 59 % 58 % 1023,0 hPa 0,0 l/m 0,0 km/h N 360 12,3 C 0,0 km/h
17.06.2019 01:52 23,6 C 15,6 C 15,6 C 59 % 58 % 1023,0 hPa 0,0 l/m 0,0 km/h N 360 12,5 C 0,0 km/h
17.06.2019 01:47 23,7 C 15,7 C 15,7 C 59 % 58 % 1023,0 hPa 0,0 l/m 0,0 km/h N 360 12,4 C 0,0 km/h
17.06.2019 01:42 23,7 C 15,7 C 15,7 C 59 % 58 % 1023,0 hPa 0,0 l/m 0,0 km/h N 360 12,4 C 0,0 km/h
17.06.2019 01:42 23,7 C 15,7 C 15,7 C 59 % 58 % 1023,0 hPa 0,0 l/m 0,0 km/h N 360 12,4 C 0,0 km/h
17.06.2019 01:37 23,8 C 15,8 C 15,8 C 59 % 58 % 1023,1 hPa 0,0 l/m 0,0 km/h N 360 12,5 C 0,0 km/h
17.06.2019 01:37 23,8 C 15,8 C 15,8 C 59 % 58 % 1023,1 hPa 0,0 l/m 0,0 km/h N 360 12,5 C 0,0 km/h
17.06.2019 01:32 23,8 C 16,0 C 15,9 C 59 % 59 % 1023,1 hPa 0,0 l/m 0,0 km/h N 360 12,7 C 0,0 km/h
17.06.2019 01:32 23,8 C 16,0 C 15,9 C 59 % 59 % 1023,1 hPa 0,0 l/m 0,0 km/h N 360 12,7 C 0,0 km/h
17.06.2019 01:27 23,9 C 16,1 C 16,0 C 59 % 59 % 1023,1 hPa 0,0 l/m 0,0 km/h N 360 12,6 C 0,0 km/h
17.06.2019 01:27 23,9 C 16,1 C 16,0 C 59 % 59 % 1023,1 hPa 0,0 l/m 0,0 km/h N 360 12,6 C 0,0 km/h
17.06.2019 01:22 24,0 C 16,2 C 16,1 C 59 % 59 % 1023,1 hPa 0,0 l/m 0,0 km/h N 360 12,6 C 0,0 km/h
17.06.2019 01:17 24,1 C 16,3 C 16,1 C 59 % 59 % 1023,4 hPa 0,0 l/m 0,0 km/h N 360 12,6 C 0,0 km/h
17.06.2019 01:17 24,1 C 16,3 C 16,1 C 59 % 59 % 1023,4 hPa 0,0 l/m 0,0 km/h N 360 12,6 C 0,0 km/h
17.06.2019 01:12 24,2 C 16,4 C 16,3 C 59 % 59 % 1023,4 hPa 0,0 l/m 0,0 km/h N 360 12,6 C 0,0 km/h
17.06.2019 01:07 24,3 C 16,5 C 16,2 C 59 % 59 % 1023,4 hPa 0,0 l/m 0,0 km/h N 360 12,5 C 0,0 km/h
17.06.2019 01:02 24,2 C 16,5 C 16,2 C 59 % 59 % 1023,4 hPa 0,0 l/m 0,0 km/h N 360 12,5 C 0,0 km/h
17.06.2019 01:02 24,2 C 16,5 C 16,2 C 59 % 59 % 1023,4 hPa 0,0 l/m 0,0 km/h N 360 12,5 C 0,0 km/h
17.06.2019 00:57 24,4 C 16,7 C 16,3 C 60 % 60 % 1023,8 hPa 0,0 l/m 0,0 km/h N 360 12,6 C 0,0 km/h
17.06.2019 00:57 24,4 C 16,7 C 16,3 C 60 % 60 % 1023,8 hPa 0,0 l/m 0,0 km/h N 360 12,6 C 0,0 km/h
17.06.2019 00:52 24,6 C 16,7 C 16,3 C 60 % 60 % 1023,8 hPa 0,0 l/m 0,0 km/h N 360 12,6 C 0,0 km/h
17.06.2019 00:47 24,7 C 16,7 C 16,3 C 60 % 60 % 1023,8 hPa 0,0 l/m 0,0 km/h N 360 12,6 C 0,0 km/h
17.06.2019 00:47 24,7 C 16,7 C 16,3 C 60 % 60 % 1023,8 hPa 0,0 l/m 0,0 km/h N 360 12,6 C 0,0 km/h
17.06.2019 00:42 24,7 C 16,9 C 16,4 C 60 % 60 % 1023,8 hPa 0,0 l/m 0,0 km/h N 360 12,8 C 0,0 km/h
17.06.2019 00:37 24,8 C 16,9 C 16,5 C 61 % 60 % 1023,9 hPa 0,0 l/m 0,0 km/h N 360 12,8 C 0,0 km/h
17.06.2019 00:37 24,8 C 16,9 C 16,5 C 61 % 60 % 1023,9 hPa 0,0 l/m 0,0 km/h N 360 12,8 C 0,0 km/h
17.06.2019 00:32 24,8 C 16,9 C 16,5 C 61 % 60 % 1023,9 hPa 0,0 l/m 0,0 km/h N 360 12,8 C 0,0 km/h
17.06.2019 00:27 25,0 C 17,1 C 16,5 C 61 % 61 % 1023,9 hPa 0,0 l/m 0,0 km/h N 360 12,8 C 0,0 km/h
17.06.2019 00:22 25,0 C 17,1 C 16,5 C 62 % 61 % 1023,9 hPa 0,0 l/m 0,0 km/h N 360 12,8 C 0,0 km/h
17.06.2019 00:17 25,2 C 17,1 C 16,7 C 62 % 61 % 1024,1 hPa 0,0 l/m 0,0 km/h N 360 12,8 C 0,0 km/h
17.06.2019 00:12 25,2 C 17,2 C 16,7 C 63 % 61 % 1024,1 hPa 0,0 l/m 0,0 km/h N 360 12,9 C 0,0 km/h
17.06.2019 00:12 25,2 C 17,2 C 16,7 C 63 % 61 % 1024,1 hPa 0,0 l/m 0,0 km/h N 360 12,9 C 0,0 km/h
17.06.2019 00:07 25,3 C 17,2 C 16,6 C 64 % 61 % 1024,1 hPa 0,0 l/m 0,0 km/h N 360 12,9 C 0,0 km/h
17.06.2019 00:02 25,2 C 17,3 C 16,7 C 64 % 61 % 1024,1 hPa 0,0 l/m 0,0 km/h N 360 13,0 C 0,0 km/h
_ Min-Zeit 06:57 05:57 05:27 04:17 - 19:45 - 00:02 - - 05:32 00:02
Minimum _ 21,9 C 13,1 C 13,6 C 58 % - 1018,3 hPa - 0,0 km/h - - 11,1 C 0,0 km/h
_ Max-Zeit 00:07 19:50 19:50 23:00 19:50 00:02 00:02 00:02 - - 15:35 00:02
Maximum _ 25,3 C 27,9 C 24,0 C 66 % 79 % 1024,1 hPa 0,0 l/m 0,0 km/h
N
- - 16,1 C 0,0 km/h
N
Durchschnitt _ 23,5 C 20,0 C 18,7 C 61 % #9:35 h 1021,1 hPa #0,0 l/m 0,0 km/h N - 13,9 C 0,0 km/h